EW8748 Weather Reports


Display with metric or nautical units.
time (UTC)temp
F
wind
direction
speed
MPH
gust
MPH
rain 1hr
in
rain 24hr
in
rain mn
in
humidity
%
barometer
mb
20260904034020 72 102 2.0 3.0 0.00 0.00 0.00 55 1015.5
20260904033511 72 79 1.0 3.0 0.00 0.00 0.00 60 1015.4
20260904032511 72 129 1.0 3.0 0.00 0.00 0.00 61 1015.3
20260904032019 72 112 1.0 2.0 0.00 0.00 0.00 63 1015.3
20260904031019 72 354 0.0 1.0 0.00 0.00 0.00 70 1015.3
20260904030011 72 354 0.0 1.0 0.00 0.00 0.00 70 1015.3
20260904024511 72 141 2.0 5.0 0.00 0.00 0.00 69 1015.4
20260904023512 72 77 1.0 3.0 0.00 0.00 0.00 67 1015.4
20260904022512 72 70 1.0 3.0 0.00 0.00 0.00 74 1015.4
20260904021511 72 35 1.0 2.0 0.00 0.00 0.00 77 1015.3
20260904021019 72 77 1.0 3.0 0.00 0.00 0.00 77 1015.4
20260904020512 72 160 1.0 3.0 0.00 0.00 0.00 78 1015.4
20260904015511 72 110 1.0 3.0 0.00 0.00 0.00 78 1015.4
20260904014511 72 124 2.0 5.0 0.00 0.00 0.00 79 1015.4
20260904014020 72 166 1.0 3.0 0.00 0.00 0.00 79 1015.5
20260904013020 72 51 1.0 3.0 0.00 0.00 0.00 79 1015.5
20260904012511 72 154 1.0 3.0 0.00 0.00 0.00 79 1015.4
20260904012019 72 97 3.0 6.0 0.00 0.00 0.00 78 1015.5
20260904011020 72 82 2.0 3.0 0.00 0.00 0.00 84 1015.4
20260904010512 73 92 2.0 3.0 0.00 0.00 0.00 85 1015.4
20260904010011 73 99 1.0 3.0 0.00 0.00 0.00 85 1015.5
20260904005512 73 89 2.0 3.0 0.00 0.00 0.00 85 1015.4
20260904004511 73 113 1.0 3.0 0.00 0.00 0.00 85 1015.6
20260904002511 73 92 1.0 3.0 0.00 0.00 0.00 86 1015.8
20260904002020 73 131 2.0 3.0 0.00 0.00 0.00 86 1015.7
20260904001019 73 112 2.0 6.0 0.00 0.00 0.00 86 1015.9
20260904000512 73 106 3.0 7.0 0.00 0.00 0.00 86 1015.9
20260904000012 73 112 2.0 6.0 0.00 0.00 0.00 85 1016.1
20260903234512 73 112 3.0 6.0 0.00 0.00 0.00 85 1016.1
20260903234020 74 73 2.0 7.0 0.00 0.00 0.00 85 1016.0
20260903233511 74 122 2.0 6.0 0.00 0.00 0.00 85 1016.1
20260903233019 74 118 3.0 7.0 0.00 0.00 0.00 84 1016.1
20260903232019 74 109 2.0 3.0 0.00 0.00 0.00 84 1016.0
20260903231020 74 79 3.0 6.0 0.00 0.00 0.00 84 1015.9
20260903230011 74 73 2.0 3.0 0.00 0.00 0.00 83 1016.0
20260903225512 74 80 3.0 6.0 0.00 0.00 0.00 83 1016.0
20260903224021 74 48 3.0 5.0 0.00 0.00 0.00 83 1015.9
20260903223019 74 79 3.0 6.0 0.00 0.00 0.00 82 1015.9
20260903222511 74 59 3.0 6.0 0.00 0.00 0.00 82 1016.0
20260903221511 74 120 3.0 6.0 0.00 0.00 0.00 81 1015.9
20260903215511 74 73 3.0 6.0 0.00 0.00 0.00 80 1015.9
20260903213511 75 75 4.0 7.0 0.00 0.00 0.00 80 1016.0
20260903212019 75 66 5.0 10.0 0.00 0.00 0.00 80 1016.1
20260903210011 75 68 7.0 12.0 0.00 0.00 0.00 77 1016.0
20260903205511 75 85 6.0 10.0 0.00 0.00 0.00 76 1016.0
20260903205019 75 79 6.0 12.0 0.00 0.00 0.00 75 1016.1
20260903203511 75 111 7.0 12.0 0.00 0.00 0.00 73 1016.1
20260903202511 76 85 6.0 12.0 0.00 0.00 0.00 72 1016.1
20260903194020 77 120 5.0 12.0 0.00 0.00 0.00 58 1016.1
20260903193019 77 88 7.0 12.0 0.00 0.00 0.00 56 1016.0
20260903192511 77 110 7.0 12.0 0.00 0.00 0.00 55 1015.9
20260903192020 77 104 6.0 10.0 0.00 0.00 0.00 55 1015.9
20260903185511 78 73 7.0 12.0 0.00 0.00 0.00 55 1015.3
20260903185019 78 111 6.0 10.0 0.00 0.00 0.00 55 1015.3
20260903184019 78 49 5.0 9.0 0.00 0.00 0.00 56 1015.0
20260903183512 78 90 5.0 8.0 0.00 0.00 0.00 55 1014.9
20260903182513 78 93 5.0 9.0 0.00 0.00 0.00 54 1014.9
20260903181520 79 64 6.0 12.0 0.00 0.00 0.00 53 1014.7
20260903181028 79 78 7.0 12.0 0.00 0.00 0.00 52 1014.7
20260903180021 79 76 6.0 9.0 0.00 0.00 0.00 50 1014.4
20260903175038 80 125 6.0 10.0 0.00 0.00 0.00 48 1014.4
20260903174039 80 114 7.0 13.0 0.00 0.00 0.00 45 1014.3
20260903173521 80 58 7.0 12.0 0.00 0.00 0.00 45 1014.2
20260903173037 81 44 7.0 13.0 0.00 0.00 0.00 45 1014.1
20260903172521 81 125 7.0 12.0 0.00 0.00 0.00 45 1014.2
20260903172038 81 48 6.0 12.0 0.00 0.00 0.00 44 1014.0
20260903170521 83 76 7.0 12.0 0.00 0.00 0.00 43 1013.9
20260903170021 83 64 6.0 12.0 0.00 0.00 0.00 43 1013.8
20260903165037 84 90 2.0 7.0 0.00 0.00 0.00 44 1013.8
20260903164037 85 52 1.0 3.0 0.00 0.00 0.00 42 1013.8
20260903163037 85 4 2.0 3.0 0.00 0.00 0.00 40 1013.8
20260903162520 85 9 1.0 3.0 0.00 0.00 0.00 39 1013.8
20260903162036 85 200 4.0 8.0 0.00 0.00 0.00 38 1013.7
20260903161036 86 197 5.0 9.0 0.00 0.00 0.00 40 1013.7
20260903155520 86 174 3.0 8.0 0.00 0.00 0.00 39 1013.7
20260903155037 87 330 4.0 8.0 0.00 0.00 0.00 38 1013.7
20260903154520 87 15 5.0 9.0 0.00 0.00 0.00 37 1013.6
20260903154039 88 43 4.0 7.0 0.00 0.00 0.00 37 1013.5
20260903153520 88 297 3.0 8.0 0.00 0.00 0.00 37 1013.4
20260903153037 88 309 3.0 5.0 0.00 0.00 0.00 37 1013.4
20260903151037 87 253 7.0 12.0 0.00 0.00 0.00 36 1013.3
20260903150522 88 297 6.0 12.0 0.00 0.00 0.00 35 1013.4
20260903144521 89 262 7.0 14.0 0.00 0.00 0.00 30 1013.5
20260903143520 89 183 11.0 17.0 0.00 0.00 0.00 29 1013.5
20260903143037 89 277 8.0 14.0 0.00 0.00 0.00 28 1013.6
20260903141522 89 231 7.0 17.0 0.00 0.00 0.00 27 1013.7
20260903141037 89 215 9.0 15.0 0.00 0.00 0.00 27 1013.8
20260903140520 89 256 10.0 18.0 0.00 0.00 0.00 27 1013.7
20260903140022 89 228 11.0 20.0 0.00 0.00 0.00 27 1013.6
20260903135037 89 227 9.0 18.0 0.00 0.00 0.00 28 1013.8
20260903134038 89 241 11.0 20.0 0.00 0.00 0.00 29 1013.8
20260903133037 89 245 10.0 20.0 0.00 0.00 0.00 31 1013.8
20260903132523 89 256 12.0 20.0 0.00 0.00 0.00 32 1013.9
20260903131525 89 262 14.0 22.0 0.00 0.00 0.00 32 1014.0
20260903125521 90 224 9.0 16.0 0.00 0.00 0.00 32 1014.2
20260903125037 90 240 9.0 18.0 0.00 0.00 0.00 32 1014.2
20260903124522 90 282 10.0 20.0 0.00 0.00 0.00 30 1014.3
20260903120520 90 269 9.0 16.0 0.00 0.00 0.00 34 1014.6
20260903120020 90 226 10.0 20.0 0.00 0.00 0.00 32 1014.6
20260903115036 91 268 12.0 21.0 0.00 0.00 0.00 31 1014.7
20260903114036 91 278 6.0 12.0 0.00 0.00 0.00 28 1014.5
20260903112520 91 211 7.0 17.0 0.00 0.00 0.00 28 1014.6
20260903112037 92 237 9.0 16.0 0.00 0.00 0.00 26 1014.7
20260903111520 92 163 7.0 15.0 0.00 0.00 0.00 26 1014.7
20260903110521 92 262 7.0 14.0 0.00 0.00 0.00 24 1014.7
20260903110023 91 281 3.0 6.0 0.00 0.00 0.00 24 1014.8
20260903104038 90 243 6.0 12.0 0.00 0.00 0.00 25 1015.0
20260903100020 89 218 6.0 12.0 0.00 0.00 0.00 25 1015.8
20260903094521 88 49 2.0 3.0 0.00 0.00 0.00 26 1016.0
20260903092523 88 110 3.0 6.0 0.00 0.00 0.00 26 1016.2
20260903092036 88 22 1.0 3.0 0.00 0.00 0.00 26 1016.3
20260903090520 87 17 5.0 8.0 0.00 0.00 0.00 26 1016.1
20260903084520 87 60 3.0 6.0 0.00 0.00 0.00 26 1016.2
20260903082037 85 166 3.0 8.0 0.00 0.00 0.00 30 1016.2
20260903080020 84 154 2.0 5.0 0.00 0.00 0.00 30 1016.2
20260903073520 84 120 2.0 3.0 0.00 0.00 0.00 30 1016.1
20260903073037 83 150 1.0 2.0 0.00 0.00 0.00 30 1016.2
20260903071521 83 195 1.0 3.0 0.00 0.00 0.00 31 1016.1
20260903064521 80 170 1.0 3.0 0.00 0.00 0.00 32 1016.2
20260903063520 79 195 2.0 5.0 0.00 0.00 0.00 34 1016.3
20260903061519 80 153 1.0 3.0 0.00 0.00 0.00 31 1016.2
20260903061035 80 145 1.0 3.0 0.00 0.00 0.00 31 1016.3
20260903060520 80 111 1.0 2.0 0.00 0.00 0.00 30 1016.2
20260903060020 80 83 0.0 3.0 0.00 0.00 0.00 31 1016.2
20260903054036 80 106 2.0 3.0 0.00 0.00 0.00 30 1016.1
20260903053519 79 81 2.0 3.0 0.00 0.00 0.00 30 1016.1
20260903053033 79 96 2.0 3.0 0.00 0.00 0.00 31 1016.0
20260903044519 75 228 2.0 3.0 0.00 0.00 0.00 33 1015.8
20260903044042 76 235 1.0 6.0 0.00 0.00 0.00 33 1015.6
20260903043035 76 262 3.0 6.0 0.00 0.00 0.00 31 1015.7
20260903042520 77 258 2.0 5.0 0.00 0.00 0.00 32 1015.7
20260903042036 77 295 2.0 3.0 0.00 0.00 0.00 31 1015.7
20260903041520 77 339 0.0 2.0 0.00 0.00 0.00 31 1015.7
20260903040519 77 21 2.0 3.0 0.00 0.00 0.00 31 1015.7
20260903040020 77 31 1.0 2.0 0.00 0.00 0.00 31 1015.7